Theta_e
309 310 310 311 313 312 312 311 310 311 312 312 313 313 314 313 313 315 314 316 316 316 316 313 331 347 342 340 338 334 335 334 333 335 335 335 335 335 336 337 337 337 339 339 339 340 339 339 338 336 336 336 336 337 337 337 336 336 337 335 333 333 331 329 329 329 330 332 334 335 335 335 335 336 335 335 335 336 335 335 335 333 333 333 333 333
309 309 310 311 313 313 312 312 311 311 311 311 312 312 313 313 313 314 314 316 315 316 317 315 332 345 341 338 337 334 336 335 333 334 334 334 334 335 336 336 336 336 337 338 339 339 339 339 338 337 336 335 336 337 337 336 336 336 335 332 331 331 329 328 329 329 331 333 334 335 335 335 336 336 335 335 336 336 335 335 334 334 333 333 333 334
309 309 310 311 313 312 311 311 311 311 311 311 312 312 312 312 313 314 315 316 315 316 317 313 329 343 341 338 336 334 335 334 334 334 334 335 334 335 336 336 335 335 336 337 338 339 339 339 338 337 336 335 336 337 336 336 336 335 331 329 329 328 327 329 330 330 333 335 335 336 335 335 336 336 335 335 336 335 334 333 334 334 334 334 334 334
309 309 310 312 312 311 311 311 310 311 311 311 312 312 313 313 312 313 314 315 314 315 318 318 331 342 341 339 337 335 335 334 334 334 334 335 335 335 336 336 336 336 336 337 338 340 339 338 338 337 336 336 336 336 336 336 334 331 328 328 328 327 328 331 331 332 335 336 335 336 335 335 336 336 335 335 335 335 333 333 332 331 332 333 334 334
309 309 310 311 312 311 310 310 310 310 310 311 311 312 313 313 313 314 314 316 313 315 327 334 340 344 340 340 339 336 336 335 334 334 334 334 335 335 336 335 336 337 337 337 338 339 338 338 338 337 337 336 336 336 336 335 332 329 328 328 328 329 331 333 333 334 335 336 336 335 335 336 336 336 335 335 335 334 333 332 331 330 332 333 335 334
309 309 310 310 311 310 310 309 310 310 310 311 312 312 313 313 313 314 313 314 312 315 327 335 340 343 339 337 339 337 338 338 335 334 334 334 334 335 336 335 336 337 337 338 338 338 338 338 338 337 337 337 336 336 336 334 331 328 329 330 330 332 333 334 335 336 336 336 335 335 335 336 336 335 335 335 334 333 333 332 331 332 333 334 334 334
309 309 310 310 310 310 310 310 309 310 310 311 313 313 313 313 313 314 312 313 314 315 323 325 331 340 338 334 336 336 339 340 336 335 334 334 335 335 336 337 337 337 337 337 338 338 338 338 338 337 337 337 336 336 335 333 331 330 331 332 333 334 335 335 336 336 336 336 335 334 334 335 335 334 335 335 333 333 333 332 333 333 333 333 333 332
309 309 309 310 310 310 309 309 310 310 309 310 313 313 313 313 312 313 311 313 316 317 324 323 326 339 340 335 333 334 340 340 337 336 335 335 337 337 337 337 337 338 337 337 338 338 339 338 338 338 336 336 336 335 334 333 333 333 333 334 334 335 336 335 335 335 335 336 335 334 334 334 334 334 335 334 334 334 333 333 333 333 332 332 331 330
310 309 309 309 310 309 309 310 310 310 310 311 313 313 314 313 312 314 312 313 315 315 321 326 332 340 340 336 332 335 341 341 339 337 336 336 337 337 337 337 337 338 337 337 337 338 339 338 338 337 336 336 335 335 334 334 335 335 335 335 335 335 335 335 335 335 335 335 335 334 333 334 334 334 333 333 333 333 333 333 332 332 331 330 329 328
310 310 309 309 309 309 310 311 311 311 311 311 312 313 313 313 313 313 313 313 313 315 318 322 332 340 340 336 334 337 343 342 339 337 336 337 338 337 338 337 338 338 337 337 338 338 338 338 338 338 336 335 335 335 334 335 336 336 336 336 336 336 335 335 335 335 335 335 335 334 334 334 334 334 333 332 332 333 333 333 332 331 330 329 326 324
311 311 310 309 309 310 311 311 311 311 311 312 312 311 311 313 313 313 316 315 313 316 319 319 327 338 341 337 335 337 342 341 338 338 337 337 338 338 338 338 339 339 338 338 338 339 338 337 338 338 337 336 335 335 335 336 336 336 337 336 336 335 335 335 334 334 335 335 335 335 334 334 333 333 333 332 332 333 333 332 331 330 328 327 323 320
310 312 311 310 310 311 311 311 310 310 311 311 311 311 311 313 313 312 314 314 313 318 323 321 321 329 337 338 334 335 338 339 338 338 338 337 337 338 338 338 339 339 338 338 338 339 338 337 338 338 337 336 336 336 336 337 337 336 336 335 335 335 335 334 334 334 334 335 335 335 334 334 333 333 333 332 332 332 332 331 330 328 327 325 320 317
309 311 311 311 311 311 310 310 310 310 310 311 311 312 312 313 313 312 314 317 318 321 325 322 316 318 329 335 334 333 335 337 337 337 337 337 337 338 338 338 339 339 338 339 339 339 337 337 337 337 336 336 336 336 336 337 336 336 335 335 335 335 335 334 334 334 334 335 335 334 334 334 333 333 333 332 332 331 331 330 328 327 326 323 319 317
309 310 311 311 311 311 311 310 310 310 309 309 310 311 312 313 314 313 316 319 320 322 323 319 315 316 323 331 333 333 334 335 337 336 337 337 337 337 338 338 338 338 338 338 338 338 337 336 336 336 336 335 335 335 336 336 336 335 336 336 335 335 334 334 334 334 334 334 334 334 334 334 333 333 332 332 331 330 330 329 327 326 323 319 317 316
311 311 311 311 311 311 311 310 310 311 310 309 310 313 314 315 316 316 319 319 318 322 320 315 316 318 321 328 333 332 331 333 336 337 338 337 337 338 338 338 338 338 338 338 337 337 337 336 336 336 335 334 334 335 335 336 336 336 336 335 335 335 334 334 333 333 334 333 333 334 333 333 332 332 331 331 330 330 329 328 327 325 320 315 315 314
310 312 312 312 312 311 311 311 311 311 311 310 311 313 313 316 321 322 323 327 326 322 319 317 320 323 323 328 334 333 333 335 336 337 337 337 337 338 338 338 338 338 338 337 336 336 335 335 335 335 334 334 334 335 335 335 336 336 335 335 335 334 333 332 332 333 333 333 333 333 333 332 332 331 331 331 329 329 329 327 327 323 316 313 313 312
311 313 314 312 312 311 311 313 311 312 315 313 310 312 313 315 323 324 321 325 326 320 320 321 319 324 331 332 334 336 336 337 337 337 336 336 337 338 339 339 338 337 338 337 336 335 335 335 335 335 334 333 333 334 334 335 335 334 334 335 335 333 332 331 332 333 332 332 332 332 333 332 332 331 330 330 329 329 328 327 326 321 314 312 312 312
315 316 316 312 312 312 312 313 312 312 317 315 310 312 315 313 320 330 326 321 322 321 325 326 320 325 335 333 333 337 337 338 338 336 335 335 337 338 338 339 338 338 337 337 336 336 335 335 335 334 333 333 333 334 335 335 334 333 334 335 334 331 331 332 333 333 333 333 332 332 332 331 331 330 329 329 329 328 328 327 323 317 312 311 311 311
316 316 314 311 312 312 311 313 313 313 313 314 313 313 317 318 318 324 324 320 321 319 320 324 320 323 332 333 334 337 337 338 338 336 336 335 336 338 338 338 338 338 337 337 336 336 336 335 334 333 333 334 334 334 335 335 334 334 334 333 332 330 331 332 332 332 332 331 331 331 330 330 329 329 328 329 328 328 328 324 317 313 311 311 311 310
317 319 315 312 313 313 312 313 313 314 312 312 314 311 316 325 323 319 319 320 320 318 321 324 319 320 330 333 334 335 335 337 337 336 336 336 336 337 338 338 338 337 337 337 336 336 336 335 334 334 333 334 334 334 335 335 334 333 333 332 331 330 331 332 331 331 330 330 329 328 328 328 327 327 327 327 327 328 326 319 312 311 311 311 311 310
315 321 318 314 313 312 313 314 314 315 314 312 313 312 312 316 317 318 319 319 319 323 327 325 322 327 331 330 331 333 334 335 336 337 336 335 336 337 338 338 338 337 337 336 336 336 335 335 335 334 333 334 334 334 334 334 333 332 331 331 331 331 331 330 330 329 328 328 327 326 326 326 326 325 326 326 327 326 321 314 311 311 310 311 310 309
312 318 321 317 314 313 312 315 316 315 315 315 316 318 316 313 316 320 318 316 322 331 331 325 327 334 331 328 332 333 332 335 335 335 336 335 336 337 338 338 337 337 337 336 336 336 335 335 335 334 334 334 334 334 333 333 332 331 330 331 331 331 330 329 328 328 327 327 326 325 325 324 323 323 323 324 323 320 315 311 310 310 310 310 309 307
314 318 321 317 316 315 313 312 315 315 314 314 314 316 317 317 321 326 325 322 321 324 326 322 324 332 331 328 331 331 331 334 334 334 335 335 336 337 338 338 337 336 336 336 336 336 334 334 334 334 334 333 333 333 333 332 331 330 331 331 330 329 328 328 327 326 325 325 324 324 323 322 321 321 320 319 317 314 312 310 309 309 308 308 307 305
318 318 317 316 315 315 315 314 313 313 312 312 313 314 316 319 323 330 335 333 324 320 322 318 318 331 337 331 329 331 331 332 333 334 334 334 336 338 337 337 337 336 336 336 335 335 334 333 333 334 333 333 332 332 332 332 331 331 330 330 328 328 327 326 325 324 323 323 322 321 321 320 320 319 317 315 312 311 310 309 308 308 307 306 304 302
318 319 317 318 316 314 316 316 313 313 312 314 317 315 316 319 321 324 327 326 322 323 323 320 322 333 337 331 330 334 335 335 333 333 334 335 336 337 337 337 336 335 336 336 335 335 334 333 333 333 332 332 332 331 331 331 331 330 329 328 327 326 325 323 322 321 321 320 320 319 318 318 318 317 315 313 310 309 309 308 307 306 305 304 302 300
319 323 325 323 317 315 319 319 319 319 314 314 318 315 315 316 316 320 322 319 321 324 322 324 331 335 334 332 333 335 337 338 335 332 333 335 335 337 337 336 336 336 335 335 335 334 333 333 332 332 331 330 331 331 330 330 330 329 328 326 325 323 322 321 320 319 318 318 317 317 317 316 316 315 313 311 309 308 307 306 306 305 303 301 300 299
322 324 331 330 319 317 323 322 320 320 315 314 316 314 314 315 318 325 325 321 325 327 322 324 334 337 335 333 334 334 336 337 336 333 333 333 335 336 336 336 335 336 335 335 334 333 332 332 331 331 330 329 330 330 329 329 329 328 326 324 322 321 320 319 318 317 317 316 316 316 315 315 314 312 310 309 307 307 306 305 304 303 301 299 298 298
325 320 322 328 322 319 321 316 314 316 315 317 318 315 315 318 322 325 324 325 326 323 321 326 332 336 337 335 334 335 335 335 334 333 333 334 335 335 335 336 335 335 334 334 333 332 331 330 329 329 329 329 328 328 328 329 330 328 325 322 320 319 318 318 317 317 316 316 316 315 315 313 311 310 309 308 307 306 305 304 303 301 299 298 297 297
328 322 317 322 322 320 319 314 314 316 316 317 319 318 318 320 323 324 328 334 329 320 326 333 332 334 338 337 335 334 334 334 333 332 333 334 335 335 335 335 335 334 334 333 332 332 330 329 328 328 329 328 327 327 328 329 329 326 322 320 318 318 317 317 317 316 316 315 315 314 313 312 310 309 309 308 307 306 305 303 301 299 298 297 296 296
324 321 317 322 324 323 324 319 315 315 314 315 317 319 320 323 327 329 330 333 329 327 334 336 333 336 338 337 336 333 332 332 332 332 334 334 335 335 334 334 334 333 333 332 331 330 329 329 328 328 328 327 327 328 328 328 326 323 320 318 317 317 317 317 316 316 316 315 314 313 312 311 310 310 310 309 307 306 304 302 300 298 296 296 296 296
322 317 317 331 333 326 327 324 317 316 316 314 314 317 320 321 325 327 324 327 332 332 331 334 338 340 336 335 335 333 331 333 332 333 334 334 334 334 334 334 333 332 331 331 330 329 328 329 329 329 328 326 327 328 328 327 324 321 319 318 316 316 316 316 316 315 314 314 313 311 310 310 310 309 308 307 305 304 302 301 300 298 296 296 296 296
326 322 324 338 336 323 325 327 321 318 316 313 314 317 318 320 320 320 321 329 337 334 330 334 341 341 337 334 333 332 333 333 332 333 333 334 334 334 334 333 332 331 331 330 329 329 328 328 329 329 328 328 327 327 327 326 323 320 319 318 316 316 315 315 314 314 313 313 312 310 310 310 309 308 307 306 304 303 302 302 300 298 296 295 296 296
328 329 326 332 331 323 324 327 322 318 314 314 323 325 322 322 322 319 320 326 331 332 334 337 339 338 335 334 335 334 334 333 332 333 334 334 334 334 334 333 332 331 330 330 330 329 328 328 328 328 329 329 328 327 326 326 324 321 319 318 316 315 315 314 314 313 313 312 311 310 309 309 308 307 307 306 305 304 303 302 300 298 296 295 296 296
329 332 323 323 326 322 325 325 318 317 317 320 331 332 323 321 322 321 320 322 324 329 334 335 336 336 333 333 335 335 333 334 333 333 333 334 334 333 333 333 331 330 329 329 329 328 327 327 327 327 327 326 325 325 325 324 324 322 319 318 316 315 314 313 313 313 312 311 310 309 309 308 308 307 307 306 305 304 303 302 300 298 296 295 296 295
330 329 322 321 321 320 329 329 318 315 322 329 336 335 327 325 327 326 325 324 327 333 339 338 336 335 333 332 333 333 333 334 333 333 334 334 333 333 333 332 331 330 330 329 329 328 328 328 327 326 324 324 324 324 323 322 322 321 319 317 316 314 313 313 312 312 311 310 310 309 308 308 307 307 306 306 305 304 302 301 299 297 295 295 295 295
327 324 321 322 322 322 328 330 323 320 325 330 333 330 326 326 328 327 322 320 323 329 338 341 336 333 331 330 330 332 333 333 333 333 333 333 333 333 333 332 332 332 331 331 330 329 328 327 327 325 324 323 323 323 322 321 320 319 317 316 315 314 313 312 312 311 311 310 309 308 307 307 306 305 304 303 302 302 301 300 298 296 295 295 295 295
323 322 320 320 321 323 325 326 326 323 322 325 325 322 321 322 326 330 324 318 319 322 328 336 335 331 330 329 329 331 332 332 332 332 333 333 333 333 333 333 333 333 332 332 331 329 327 326 325 325 325 324 323 322 322 320 318 317 316 316 314 313 312 312 311 311 311 309 308 307 307 305 304 303 302 301 301 300 299 298 297 296 295 295 295 295
318 319 320 318 318 324 330 328 324 320 322 328 331 327 322 318 323 335 332 322 321 321 322 331 333 330 330 328 328 330 331 332 334 332 332 333 333 333 333 332 332 332 331 330 329 328 326 326 325 324 324 323 322 321 320 319 317 317 316 315 313 312 312 311 311 311 310 308 307 307 306 304 303 302 301 300 299 299 298 297 296 295 295 295 295 295
318 322 328 327 321 323 330 326 320 320 323 329 333 331 322 316 320 331 330 325 324 320 320 327 331 329 329 328 328 329 331 334 334 331 331 333 333 333 333 331 331 330 329 329 329 328 326 325 324 324 323 322 320 319 319 318 316 316 316 314 313 312 312 311 312 311 308 307 307 306 304 303 302 301 300 299 298 297 296 295 295 295 295 294 295 295
322 323 326 326 321 323 325 320 318 321 321 324 330 328 319 315 319 323 324 327 326 320 319 326 329 328 328 328 328 329 332 334 333 331 331 332 333 332 332 332 331 329 328 328 328 328 327 325 324 323 322 320 319 318 318 317 316 315 315 314 312 312 312 311 311 309 306 306 306 305 304 303 302 301 299 298 297 296 295 295 295 295 294 294 294 294
320 320 320 321 321 322 322 317 316 322 324 325 327 322 315 316 321 324 327 329 325 321 321 325 327 328 329 328 328 329 329 328 327 327 331 332 332 332 331 331 330 329 329 328 327 327 326 325 324 323 322 320 319 319 318 318 316 315 314 313 312 312 311 311 309 307 305 305 305 304 304 303 302 301 299 297 296 295 295 295 295 295 294 294 294 294
321 320 319 320 320 319 321 319 318 321 323 322 321 317 316 321 327 327 328 326 323 323 324 324 327 330 329 328 329 329 327 324 323 326 330 331 332 331 330 330 330 329 328 328 327 326 325 323 323 322 321 320 319 319 318 317 315 314 313 313 312 311 311 309 307 306 306 305 304 304 305 304 303 301 299 297 295 295 295 295 294 294 294 294 294 294
323 321 319 321 321 319 320 319 317 320 322 320 320 320 321 326 329 327 325 323 323 326 325 324 327 330 329 329 328 327 326 325 325 327 330 331 331 331 330 330 330 328 328 327 326 325 324 323 321 320 320 319 318 318 317 315 314 314 313 312 312 311 310 308 306 306 306 305 305 305 305 304 303 302 299 297 295 295 295 294 294 294 294 294 294 294
321 320 320 322 321 320 320 318 317 320 321 320 322 324 323 325 326 324 323 323 324 325 326 325 326 327 329 330 328 326 326 325 326 328 330 330 330 330 330 330 329 329 328 327 326 324 324 322 320 319 319 318 318 317 315 315 314 314 313 312 311 310 309 307 306 306 306 306 306 305 305 304 302 301 299 297 295 295 294 294 294 294 294 294 294 294
318 320 322 322 319 317 320 323 321 319 319 321 324 324 323 323 323 323 323 324 323 324 326 326 325 325 328 330 328 326 326 326 326 328 329 329 330 329 329 329 329 328 327 326 325 324 322 322 320 319 318 317 316 316 315 314 314 314 313 312 310 309 308 307 306 306 306 306 305 305 304 303 302 300 298 296 296 295 295 294 294 294 294 294 295 295
314 315 318 320 320 319 319 322 321 319 320 322 323 323 323 323 323 323 323 323 324 325 326 326 326 324 324 327 328 327 326 326 327 328 329 329 329 329 328 328 328 327 327 325 324 323 321 321 320 318 317 316 315 314 314 314 314 313 312 311 310 309 308 307 306 306 306 305 305 304 303 302 301 299 298 297 297 296 295 295 295 294 294 295 296 297
316 316 318 319 322 324 323 323 322 320 320 321 321 321 322 322 322 322 323 323 323 324 324 325 326 325 323 324 326 327 326 326 327 328 328 328 328 328 328 328 327 327 326 325 324 322 321 320 319 318 317 315 314 314 314 313 313 313 312 311 309 308 307 307 306 306 305 305 304 304 303 302 301 299 298 298 297 297 297 296 295 295 296 297 298 299
318 318 320 321 323 323 321 320 320 319 318 320 321 321 322 321 321 322 324 324 323 323 324 325 326 326 324 324 325 326 326 326 326 327 328 327 328 328 327 327 327 326 325 324 324 322 320 320 319 317 316 315 314 313 313 312 312 312 311 310 309 307 307 307 306 306 305 305 304 304 303 301 299 298 298 298 298 298 298 297 297 297 298 299 299 300
318 319 321 321 322 322 320 318 318 318 319 320 320 321 323 322 321 321 322 324 323 323 324 325 326 326 325 325 325 326 326 326 326 327 327 327 327 326 326 326 326 325 324 323 322 321 320 319 318 317 316 315 314 312 312 312 312 311 310 309 308 307 307 306 306 305 305 304 304 303 301 299 298 297 297 298 298 298 298 298 299 300 300 300 301 301
319 322 323 321 323 326 327 323 321 323 325 322 320 321 323 323 322 321 321 323 323 322 323 324 325 326 326 325 326 325 325 326 325 325 326 326 326 326 326 325 325 323 322 321 320 320 319 318 317 317 316 315 313 312 312 312 312 310 309 308 307 307 306 306 306 305 305 304 304 302 299 298 297 297 297 297 298 298 299 300 301 301 301 301 301 301
318 321 323 325 326 327 326 321 319 321 323 322 321 322 322 322 322 322 322 323 322 322 322 323 324 325 326 325 325 325 325 325 325 325 325 324 324 325 324 324 324 322 320 319 319 318 318 317 317 317 316 314 313 313 313 312 311 309 308 307 307 306 306 306 306 305 305 304 302 300 297 297 297 297 297 297 297 298 299 300 301 301 301 301 301 301
Wind_Speed
10 5 7 9 8 11 10 8 7 5 5 6 5 5 6 5 4 5 6 7 7 6 7 8 8 8 9 8 9 14 16 17 18 19 19 23 27 30 30 30 31 32 34 33 32 33 34 36 35 33 33 34 36 37 34 33 32 30 29 30 32 31 29 27 27 28 26 23 22 22 21 20 18 16 15 15 14 14 13 13 13 13 12 12 11 10
10 8 8 9 6 8 10 7 7 8 8 7 4 4 6 6 5 4 5 7 7 6 5 6 8 7 10 8 8 15 16 13 19 21 20 24 25 27 29 27 28 30 32 33 33 35 36 37 35 35 36 36 37 36 34 35 34 31 29 30 32 31 30 28 27 27 24 22 21 20 21 20 18 16 16 16 16 15 15 15 14 13 13 12 11 10
8 9 7 7 5 6 8 8 8 9 8 8 5 4 5 5 3 4 5 6 4 5 5 6 9 7 7 5 6 10 10 14 25 29 30 32 28 26 28 27 29 31 32 33 34 37 37 37 36 35 36 35 35 35 34 34 32 30 30 31 32 31 30 28 26 25 23 21 19 19 19 19 18 17 17 18 18 17 16 15 14 13 12 12 11 10
6 7 7 7 7 7 8 10 10 9 7 6 5 4 4 4 5 4 6 6 4 4 4 6 6 3 3 4 3 3 2 8 16 19 24 30 30 31 32 31 33 36 35 35 36 38 38 37 36 35 35 35 35 35 34 33 31 30 31 31 31 30 29 28 26 24 22 21 19 18 19 19 19 19 19 20 19 18 16 15 13 12 11 11 10 9
4 5 10 8 8 9 8 10 12 9 6 7 6 6 4 4 5 4 5 6 5 3 4 8 6 2 2 4 1 2 5 6 7 11 15 17 22 28 30 30 34 39 40 39 39 40 39 38 37 35 35 35 35 35 34 32 31 30 31 31 30 29 28 27 25 23 22 22 21 20 20 21 21 22 21 21 20 17 16 14 12 11 10 9 9 9
5 8 15 12 9 10 9 10 13 10 5 7 7 6 6 5 5 6 3 2 3 3 3 8 5 0 1 1 2 2 3 4 5 10 12 14 19 24 27 28 32 35 38 40 40 40 38 38 37 35 36 36 36 35 33 31 31 31 31 30 29 28 27 26 24 23 22 22 22 22 24 24 24 24 23 21 20 18 15 14 13 12 10 10 10 12
5 9 14 13 11 11 10 10 12 12 7 6 5 8 8 7 7 7 2 3 4 5 6 9 6 3 1 4 6 5 5 6 6 8 10 16 22 24 26 27 30 32 34 36 37 38 38 38 37 36 36 37 36 34 32 32 32 30 29 29 28 27 25 25 23 22 21 21 21 22 24 25 25 25 23 20 19 17 15 14 13 11 11 11 12 12
8 12 13 14 13 10 10 9 10 12 9 4 5 9 10 10 11 8 3 3 4 4 5 9 6 4 4 7 7 5 6 6 6 7 10 17 22 24 26 27 30 32 33 36 36 36 38 38 37 36 36 37 35 33 32 32 30 29 28 27 26 25 24 24 22 21 20 20 21 22 23 24 25 25 22 20 17 16 14 12 11 9 10 11 11 11
8 12 13 15 14 10 9 8 8 11 9 4 5 7 8 9 9 6 4 4 4 2 4 6 5 5 4 4 4 4 7 8 10 11 12 16 22 24 27 28 30 32 34 38 38 36 37 38 37 35 35 35 34 33 31 30 28 27 27 26 25 25 24 23 22 21 21 21 21 23 24 25 25 23 21 19 17 14 12 10 9 9 9 9 9 8
8 12 15 14 12 9 7 6 7 10 8 7 7 5 3 4 5 4 5 5 3 2 5 7 5 5 2 3 5 5 7 10 11 11 12 17 22 24 27 30 31 32 35 37 37 36 36 37 36 35 34 33 32 31 29 27 27 27 27 26 25 24 24 23 22 22 23 22 21 22 24 25 25 23 21 19 16 14 12 11 10 9 9 8 7 6
9 13 15 12 11 9 7 6 7 8 8 6 8 6 3 2 1 2 4 4 4 4 6 10 9 6 4 6 8 8 11 15 13 10 11 16 22 24 27 31 31 32 35 36 36 35 35 35 35 34 32 31 30 30 28 28 28 28 27 25 25 24 24 23 23 24 23 22 21 22 23 24 24 22 19 17 16 14 13 12 11 10 9 7 6 5
8 11 10 10 15 13 7 7 8 8 8 7 7 6 2 2 2 1 2 2 5 6 6 9 9 6 5 7 9 11 13 14 15 14 15 18 23 27 28 31 31 31 34 36 36 35 34 34 33 32 31 30 30 29 29 29 29 28 26 25 25 24 24 24 25 24 23 23 22 22 23 23 22 20 17 16 15 14 13 11 10 10 8 6 5 6
7 8 6 9 17 18 10 6 7 8 8 8 7 5 4 1 1 3 4 3 5 6 6 8 10 6 5 7 14 18 14 12 16 19 23 25 27 29 30 32 32 32 35 36 37 37 35 34 34 33 33 32 31 30 29 29 29 28 26 25 25 24 24 26 26 26 24 24 23 23 23 21 20 18 16 15 14 12 11 10 10 9 6 5 6 7
4 6 7 10 12 17 15 8 7 8 9 9 7 6 6 4 4 4 4 2 3 5 7 6 10 6 3 4 14 21 19 19 22 22 26 32 34 33 33 35 34 33 35 36 37 38 36 36 35 34 34 33 31 30 30 30 28 28 26 26 25 25 25 26 27 27 25 24 24 23 22 21 20 18 16 14 12 11 10 10 10 7 4 6 8 9
5 5 9 10 8 14 16 11 8 6 7 8 5 6 5 5 5 4 3 4 4 4 5 3 5 5 4 3 12 20 19 18 19 17 20 25 28 30 32 34 34 33 34 35 37 38 36 36 35 34 34 33 32 30 30 30 28 28 27 27 27 26 26 25 25 25 25 24 24 23 22 21 19 18 15 13 11 11 11 10 8 5 5 8 10 10
6 4 7 9 8 14 15 10 9 7 5 7 4 6 5 6 6 2 3 6 5 2 3 2 3 4 5 1 1 9 11 12 18 19 21 21 23 27 29 32 33 32 33 35 36 36 35 35 34 33 33 33 32 31 30 30 29 29 28 28 29 28 26 24 23 23 23 23 22 22 21 19 18 17 15 13 12 11 11 9 6 4 6 10 11 10
6 4 6 10 9 15 17 11 11 10 6 5 5 5 5 6 7 4 3 1 4 4 4 2 1 1 1 5 6 9 12 11 15 17 19 22 25 25 26 29 31 32 33 34 35 34 34 34 33 32 32 32 32 32 31 31 30 30 30 30 31 29 25 23 22 22 22 22 21 21 20 18 17 17 15 14 12 12 11 8 6 6 10 12 11 10
6 4 7 12 9 16 23 15 8 10 8 5 6 6 4 5 3 4 3 1 4 4 4 1 3 2 2 2 3 9 13 10 13 14 15 19 23 24 23 27 30 33 34 34 33 33 33 33 33 32 31 31 32 32 32 31 30 30 31 31 30 28 26 24 23 22 22 22 22 21 20 19 18 17 16 15 13 13 11 8 8 11 14 13 11 10
3 2 5 11 10 12 17 13 6 7 6 5 6 7 5 5 3 1 3 2 3 4 3 3 2 3 3 4 5 11 14 13 13 14 14 16 21 23 24 27 30 33 34 32 32 32 32 33 33 32 31 31 32 32 33 32 32 32 31 29 28 27 26 24 23 23 22 22 21 21 21 20 19 18 17 16 15 13 11 9 11 15 16 13 11 10
0 3 2 6 9 8 7 7 7 5 3 4 5 6 4 4 4 3 3 4 4 4 3 2 1 2 3 7 13 15 15 16 15 14 14 17 22 25 26 29 33 35 35 33 33 34 34 34 34 33 33 32 33 33 34 34 33 32 31 28 26 26 26 25 24 24 23 22 22 22 21 21 20 19 18 17 16 14 11 12 16 17 15 13 12 10
3 3 4 3 6 9 4 4 7 6 4 5 4 4 4 3 2 2 2 3 4 4 3 2 1 4 5 7 15 18 18 19 20 18 15 18 26 28 29 32 35 36 36 35 36 36 35 35 35 34 33 33 34 35 35 34 33 32 30 27 26 26 26 25 25 24 23 23 23 22 21 20 20 19 19 17 16 14 14 16 18 16 14 13 11 9
3 1 5 3 4 8 4 3 7 8 6 6 4 3 5 5 3 3 2 2 2 4 4 5 3 6 5 6 14 19 19 19 22 22 18 23 33 33 32 36 38 39 38 37 38 37 37 36 36 36 35 35 36 36 35 34 32 30 29 28 27 26 26 25 24 23 23 23 22 20 19 19 18 17 17 16 16 16 19 19 17 16 15 13 11 8
5 2 3 4 4 6 5 3 7 8 6 5 4 3 4 4 5 5 3 4 1 1 1 4 3 6 5 5 12 16 18 21 25 24 19 24 34 36 36 38 40 41 39 38 40 39 38 37 37 38 38 37 37 36 35 34 31 30 29 29 28 26 25 24 22 22 22 21 20 19 19 18 18 17 17 18 19 20 20 19 17 16 14 12 10 8
4 2 3 3 1 1 1 3 2 4 5 3 2 2 4 4 4 5 5 4 2 1 1 3 2 5 6 3 7 8 12 20 25 27 25 25 29 32 35 37 37 38 37 37 39 40 39 38 38 39 39 37 37 36 34 33 31 30 29 28 26 24 23 22 22 22 22 21 21 20 20 19 19 18 18 19 21 21 20 19 18 15 13 11 9 8
3 2 4 5 3 2 3 4 3 1 3 3 1 2 4 6 5 4 3 3 2 2 4 5 4 6 6 1 7 7 6 8 9 14 20 23 27 31 32 33 34 35 34 35 37 38 39 40 40 40 39 38 38 36 34 33 31 29 28 26 24 23 22 22 22 22 22 22 22 21 20 20 19 17 18 19 21 21 20 18 16 14 12 10 9 9
1 2 4 5 5 5 4 4 5 4 3 3 1 1 4 7 7 5 2 5 1 3 3 5 5 4 4 3 11 12 11 11 11 12 12 14 22 28 31 33 35 36 37 38 38 39 40 41 41 40 39 39 38 36 34 32 30 28 27 25 23 23 23 23 22 22 22 22 22 22 21 20 19 18 19 20 21 20 19 17 15 14 11 10 9 9
2 1 3 6 6 7 6 5 5 5 4 3 1 3 4 6 8 5 4 4 4 2 1 3 5 4 3 7 13 13 13 13 12 15 18 18 22 28 32 35 37 39 41 41 41 41 41 41 42 41 40 39 38 36 34 32 30 28 26 24 23 23 23 23 22 22 22 21 20 20 19 19 19 20 21 21 21 19 18 17 15 13 12 11 10 10
3 1 1 6 7 6 6 5 4 8 5 6 6 4 4 5 8 7 4 5 5 3 2 6 4 8 7 8 13 16 15 13 11 16 24 29 31 31 33 34 35 36 38 41 42 42 42 42 42 41 41 39 37 35 33 30 29 28 26 24 24 25 24 23 23 22 21 19 18 18 18 19 21 23 23 22 21 20 18 17 15 13 13 12 11 11
5 1 1 4 5 2 1 3 6 8 5 6 7 4 2 5 8 7 5 6 6 5 6 6 5 7 8 8 12 17 17 17 20 26 32 33 32 32 32 32 33 35 38 40 42 43 43 42 41 41 41 39 37 35 32 30 30 29 26 26 26 25 25 25 24 23 21 19 18 18 20 22 24 24 23 21 20 19 18 17 15 14 13 13 12 12
5 1 3 2 4 5 5 2 3 8 6 4 5 6 5 6 7 7 5 4 6 4 5 7 5 2 2 5 8 11 13 16 21 25 28 29 30 31 32 32 34 36 39 41 42 43 43 43 42 41 40 39 38 36 33 32 32 30 28 27 26 26 27 26 25 24 22 20 20 21 23 25 25 24 23 22 21 20 19 17 16 15 15 15 13 13
4 1 4 3 5 5 6 6 2 5 7 5 3 3 5 7 4 4 4 3 4 4 3 7 8 2 2 1 5 12 16 16 15 18 23 27 30 31 31 32 34 36 38 41 42 42 43 44 43 41 40 40 39 37 35 34 32 29 28 26 24 25 26 25 24 23 22 21 22 24 25 26 25 24 23 22 21 21 19 18 16 16 16 16 15 14
4 1 3 5 5 4 5 5 4 2 5 4 2 4 3 7 4 2 3 3 5 7 7 6 5 4 2 2 6 13 18 17 15 19 23 25 29 32 33 33 36 38 40 42 43 43 44 46 46 45 43 42 40 39 37 35 32 30 29 26 24 25 25 24 23 23 23 22 23 25 27 26 26 25 24 23 22 21 20 18 16 16 16 16 15 15
2 3 2 4 4 3 5 3 2 4 6 1 5 5 3 4 3 2 2 2 5 9 8 5 5 5 6 8 8 10 12 14 18 25 28 29 30 31 33 34 36 39 41 44 46 47 47 47 47 46 45 43 42 41 38 36 34 32 29 26 25 26 26 25 25 25 24 24 25 27 28 28 27 27 25 24 23 22 20 18 16 16 16 16 16 16
2 4 2 2 3 1 6 3 4 7 4 5 7 4 4 4 6 6 2 3 4 5 5 5 5 5 7 10 12 14 15 19 25 29 32 33 32 30 29 31 34 37 40 43 46 46 45 45 45 45 44 43 42 40 38 36 34 31 29 27 26 26 27 27 28 27 26 26 27 28 28 28 28 28 27 25 24 22 21 18 16 16 17 17 17 17
3 4 2 2 3 1 3 4 6 5 6 6 6 5 4 3 8 10 4 1 2 5 8 9 9 10 11 10 11 16 22 26 29 30 31 33 35 35 33 32 34 38 40 42 44 44 45 46 46 45 43 41 40 38 37 35 33 32 30 28 27 27 27 28 28 28 26 26 28 28 28 28 28 28 27 26 24 23 21 19 17 17 18 18 17 17
4 3 2 2 2 1 3 4 4 5 5 5 6 6 3 2 5 8 5 4 4 2 8 11 12 13 11 8 6 10 17 22 22 24 29 32 34 37 38 39 42 44 47 48 48 49 50 49 48 46 43 40 39 37 36 35 34 34 32 30 28 27 28 28 29 28 26 27 28 29 28 28 28 28 27 26 24 23 21 19 17 18 19 19 19 18
6 3 2 3 2 2 3 2 1 1 3 4 4 3 2 1 2 5 5 2 5 4 3 10 11 10 10 11 13 16 20 18 12 13 24 31 34 39 42 45 47 48 49 50 50 49 49 47 46 45 43 41 40 38 37 36 36 35 33 30 29 29 29 29 28 27 26 27 28 28 28 28 28 27 27 25 24 22 21 19 18 19 19 19 19 18
6 4 3 3 2 2 4 3 3 3 1 4 5 5 4 3 6 7 5 2 5 7 1 9 12 12 11 11 16 21 19 12 4 8 23 31 33 37 39 40 45 46 45 46 46 45 46 46 45 43 42 42 41 40 39 38 37 36 33 31 32 31 31 31 28 26 26 28 29 29 29 28 28 27 26 24 23 22 21 20 19 19 19 18 18 18
6 4 4 4 3 2 4 3 2 2 3 6 6 8 6 5 8 6 6 2 7 9 2 9 13 12 14 18 21 20 13 6 4 12 27 36 36 37 38 37 40 42 41 43 45 44 44 45 44 43 43 42 41 40 39 38 36 34 33 33 34 33 33 32 29 28 29 29 29 29 29 28 27 26 25 24 22 22 22 21 20 20 19 18 18 18
5 4 4 4 3 2 4 2 1 2 3 4 5 6 5 7 8 7 3 4 8 10 4 10 15 14 20 26 24 15 10 9 10 20 35 41 39 38 39 39 40 41 41 42 43 43 44 44 44 44 44 43 42 40 39 37 35 34 34 35 35 35 34 32 30 31 32 31 29 29 28 27 27 26 24 23 23 22 22 21 21 21 21 20 19 19
4 3 3 2 2 3 4 2 1 2 4 4 5 4 5 8 9 5 4 7 7 10 4 12 21 20 24 29 23 15 17 17 16 26 39 41 38 38 37 38 39 39 40 41 42 42 44 44 45 45 44 44 43 41 39 37 36 35 35 35 36 35 33 32 32 33 33 31 30 29 28 27 26 25 23 22 23 23 22 22 22 22 22 22 21 20
2 2 3 1 1 1 3 3 1 3 3 3 3 2 4 6 2 3 5 4 4 7 6 10 24 24 25 31 28 20 18 14 12 24 40 41 40 39 37 36 37 37 39 41 41 42 44 44 45 45 44 44 43 40 39 39 37 36 35 35 35 34 32 32 33 33 32 31 31 30 29 28 26 24 23 23 24 24 24 23 23 23 23 22 22 21
2 1 1 2 2 1 3 3 2 2 4 8 6 4 4 3 5 5 2 2 2 5 9 7 20 26 27 32 28 15 9 8 12 27 40 41 41 41 39 38 39 39 40 42 43 44 44 44 44 44 43 43 40 39 39 39 37 37 36 35 35 34 33 34 34 33 33 32 31 30 30 28 26 24 24 25 25 26 26 25 24 24 23 23 22 22
2 2 2 2 1 2 3 1 2 5 5 10 5 2 2 3 5 5 4 4 6 6 7 6 11 23 31 34 27 15 10 12 20 31 39 39 39 40 40 40 40 40 42 43 43 44 44 44 44 43 42 41 40 39 40 39 37 37 37 36 35 35 35 34 33 34 34 33 31 31 30 28 26 26 26 26 27 27 27 27 26 24 24 23 22 22
1 2 3 2 1 2 4 4 4 4 3 9 9 7 6 7 9 8 6 5 8 7 5 5 4 14 30 36 29 19 16 19 25 34 39 40 39 39 39 40 40 41 43 44 44 44 44 43 44 43 41 41 41 40 40 39 38 38 38 37 36 36 36 35 34 35 35 33 32 31 30 28 27 27 27 28 28 28 27 27 27 26 25 24 22 21
3 3 1 3 2 2 1 1 2 0 5 10 11 8 7 8 6 6 6 6 7 7 6 4 4 4 20 32 31 25 22 23 28 36 39 40 40 39 39 40 40 41 43 44 45 44 43 43 43 42 42 42 41 40 41 40 39 38 38 38 37 37 36 35 35 36 35 33 32 30 29 28 28 28 29 28 28 27 27 27 27 26 25 24 22 20
5 6 4 3 3 3 1 3 2 2 5 8 8 6 5 5 4 4 5 4 4 6 6 5 4 2 10 26 33 32 28 26 31 37 40 40 41 40 40 41 42 43 44 45 45 45 45 44 44 43 44 43 42 41 41 41 40 38 37 37 37 37 36 36 37 37 35 33 32 31 30 29 29 29 30 30 29 28 26 24 24 24 23 22 21 19
4 6 4 3 3 2 3 6 4 2 4 6 7 5 4 5 4 4 4 4 4 5 5 4 3 2 6 21 31 33 30 30 33 37 41 42 42 41 41 42 43 43 44 45 45 46 46 45 45 45 45 44 43 43 43 42 41 39 36 36 37 37 38 38 38 36 35 33 32 31 30 30 30 31 32 31 30 27 25 24 24 23 22 20 18 17
3 4 2 2 3 1 2 4 2 2 2 3 5 5 5 5 3 3 2 3 4 4 4 2 1 1 3 15 26 31 32 33 34 37 41 42 42 42 42 42 42 44 45 45 46 46 46 46 45 45 45 44 44 44 44 43 41 38 36 36 38 38 38 39 38 36 34 34 32 31 31 30 31 32 33 32 30 27 26 25 24 21 20 18 17 16
1 1 1 4 3 0 3 4 3 3 2 3 2 4 3 2 1 3 2 2 3 4 4 2 3 2 3 8 19 28 32 33 34 36 38 40 41 41 41 41 42 43 43 44 45 45 44 44 44 44 45 45 45 45 44 42 39 37 36 37 39 39 38 38 37 36 35 34 33 32 32 32 32 33 33 32 31 30 29 27 23 20 19 18 17 15
0 1 2 4 4 4 6 5 3 2 2 4 3 3 2 2 2 3 2 1 2 3 3 3 4 7 8 10 16 23 28 30 33 34 35 36 38 38 39 40 41 42 42 42 43 43 43 43 44 44 45 46 46 44 43 41 38 36 38 39 38 38 38 38 37 37 36 35 34 33 33 34 34 34 33 33 33 32 30 27 23 20 18 17 16 15
Wind_Direction
185 198 213 208 210 206 207 194 189 229 230 206 192 193 199 192 217 211 209 221 167 154 214 189 159 168 178 188 165 149 150 144 145 152 157 162 166 167 166 167 167 168 170 167 165 168 167 166 168 170 172 172 171 172 175 175 174 174 173 177 184 189 190 189 189 187 184 186 187 188 187 189 191 190 188 187 185 183 184 190 196 196 191 196 204 202
188 212 222 206 211 211 205 185 184 221 239 236 222 208 212 196 216 226 211 226 178 151 227 175 143 178 185 185 165 146 148 158 159 158 165 169 170 171 166 164 165 166 167 165 165 167 166 168 172 174 174 175 175 175 176 176 176 176 176 178 182 187 189 189 189 186 185 189 189 188 187 187 187 186 187 187 185 186 188 190 193 197 196 196 200 199
201 218 211 193 207 211 199 187 195 220 229 236 232 210 223 193 195 247 239 240 187 160 225 174 150 186 185 160 161 159 161 175 173 169 170 171 170 171 166 162 163 162 163 164 166 167 168 171 174 175 176 177 178 176 178 179 178 176 177 178 182 185 187 188 189 187 186 189 191 190 187 184 184 183 187 189 188 188 188 187 187 194 199 199 202 204
209 213 189 186 204 205 200 190 196 222 229 234 220 194 235 204 174 217 238 245 212 173 191 156 137 148 100 86 142 191 129 159 180 177 171 169 169 170 168 166 165 163 163 165 167 168 169 171 174 177 178 177 178 178 180 180 178 177 178 180 181 183 185 185 188 188 187 189 190 189 184 182 182 181 186 189 187 187 187 185 187 198 205 208 216 222
230 178 172 192 210 204 203 192 195 214 224 235 223 189 216 225 204 206 223 236 217 180 134 110 87 51 71 80 109 332 56 108 163 163 162 170 169 168 167 168 168 166 167 167 168 169 169 172 176 178 179 178 180 181 181 180 179 179 179 180 181 182 184 184 186 189 191 190 188 185 180 178 179 179 184 186 181 180 184 187 191 201 211 219 234 248
239 173 172 195 217 207 206 200 200 201 208 242 231 189 199 221 232 230 225 212 181 219 182 123 108 260 337 34 214 234 103 118 152 154 159 164 165 167 167 169 170 170 171 170 169 169 170 174 176 179 180 181 183 183 181 182 182 181 181 181 181 183 184 184 188 191 192 192 188 185 181 179 179 178 180 184 182 181 183 188 195 204 218 235 250 259
218 181 175 196 213 209 212 213 205 194 196 238 204 173 200 218 232 231 178 106 174 226 210 174 169 166 234 254 224 198 165 160 164 161 162 161 165 170 168 169 170 171 172 171 171 171 172 176 177 180 182 183 185 184 183 184 183 181 181 182 183 185 184 184 189 192 193 194 190 188 185 183 183 179 178 183 185 186 187 193 203 214 230 245 255 261
192 187 183 195 206 212 214 213 204 192 195 222 164 164 196 216 233 230 143 141 218 257 223 197 168 126 189 221 210 184 155 156 173 175 171 168 169 171 171 173 172 172 173 171 173 173 174 178 180 181 182 183 186 185 185 185 182 181 182 184 186 187 185 185 189 191 194 196 190 187 185 183 185 183 178 179 183 187 193 201 212 227 241 252 263 267
185 191 188 190 203 215 212 204 190 187 200 225 182 173 191 205 228 226 168 208 236 277 245 207 126 114 194 190 164 167 163 174 192 189 182 178 175 173 175 177 174 173 175 173 173 175 178 181 182 183 183 183 185 187 186 184 182 183 184 186 186 187 186 186 188 189 191 194 188 185 185 183 185 186 180 179 185 190 198 207 218 231 245 260 271 268
196 202 191 189 204 210 201 200 185 185 204 228 216 209 211 207 225 209 185 215 222 200 234 217 159 125 151 175 166 175 186 195 198 192 187 183 178 177 178 177 176 175 175 175 174 176 181 184 185 186 184 183 185 187 185 184 185 185 187 188 187 185 186 187 189 187 187 190 187 186 187 186 185 184 182 185 191 196 201 211 222 236 252 264 264 248
209 203 193 193 206 199 191 200 193 191 195 215 227 229 261 285 269 218 196 194 201 227 238 216 186 136 139 204 192 184 196 194 186 181 183 181 179 182 182 178 176 174 174 175 175 177 182 187 189 188 184 182 183 185 185 185 187 188 188 188 186 184 185 187 186 184 184 186 188 190 191 191 189 186 188 192 194 199 206 217 229 244 254 250 233 207
216 202 194 194 197 187 185 205 203 203 193 201 222 210 224 323 347 278 263 185 196 240 251 206 183 163 174 201 202 212 213 190 178 180 179 180 182 183 181 178 175 172 173 175 175 177 181 185 188 186 183 183 183 184 185 186 188 189 187 186 187 186 185 185 184 184 184 184 188 191 191 193 193 192 197 198 197 203 214 227 240 253 253 230 204 183
222 216 192 182 193 188 185 198 199 207 203 202 208 179 167 199 203 215 225 216 204 237 252 184 165 193 218 198 196 207 212 190 187 188 178 176 179 180 177 176 175 172 173 175 175 177 181 182 184 184 182 183 184 185 187 187 188 187 185 186 188 187 184 183 183 184 185 184 187 188 188 191 194 197 201 202 204 212 223 239 251 255 247 215 195 175
219 243 205 184 191 189 188 188 190 204 202 200 198 169 167 170 174 210 218 220 203 229 250 190 162 194 244 212 196 199 203 196 194 192 179 175 176 175 174 174 174 174 175 176 176 179 183 182 183 184 184 184 185 187 188 188 188 186 184 185 187 186 185 184 183 184 185 186 188 189 191 194 198 202 204 205 214 225 234 247 251 246 220 190 175 161
187 230 210 192 181 183 191 194 184 183 186 202 191 139 160 169 160 196 195 181 200 233 251 187 160 188 181 208 208 202 201 186 171 170 170 172 172 169 169 171 174 175 175 175 178 182 184 183 183 185 184 184 185 187 188 187 187 186 184 185 187 185 184 185 183 183 185 186 187 191 194 198 203 206 206 208 219 233 243 249 249 236 191 168 159 156
191 230 209 196 181 174 188 197 174 157 174 202 169 132 180 183 150 163 187 176 174 204 251 181 179 206 171 27 259 176 169 142 135 144 153 161 166 165 167 171 173 174 174 175 179 181 182 181 181 183 184 184 186 187 187 187 186 185 185 187 188 185 183 184 183 181 183 185 188 192 196 201 206 207 207 211 220 233 244 247 250 230 177 162 160 164
180 247 204 189 186 177 185 192 177 173 174 177 173 181 196 166 134 134 194 191 109 144 244 218 158 269 91 19 22 110 128 126 131 143 152 157 163 164 167 170 171 173 174 176 179 179 178 178 178 181 184 185 186 186 185 186 186 186 185 184 186 185 182 182 180 179 183 187 190 194 199 204 207 208 211 216 224 234 242 248 252 216 174 165 167 172
162 248 216 183 185 188 185 185 188 188 173 159 191 204 181 161 130 103 146 344 76 152 259 288 158 195 94 30 12 105 120 137 142 145 151 155 161 167 169 170 170 172 174 177 177 175 175 176 176 179 183 184 184 184 184 185 186 186 184 183 186 185 180 179 179 181 186 191 194 197 201 205 206 208 213 218 226 235 241 248 233 195 174 169 172 177
152 213 223 185 183 188 180 177 202 216 183 153 181 189 166 176 216 67 151 173 123 161 268 312 210 194 134 152 157 133 138 152 151 150 155 160 166 169 169 168 168 171 174 174 172 172 173 175 178 179 180 181 182 182 181 182 183 184 182 184 187 183 179 181 185 189 193 196 200 203 204 206 207 210 216 220 226 234 239 230 199 179 173 174 178 183
251 145 197 201 177 164 164 174 194 215 180 115 152 181 161 144 174 181 171 164 148 168 219 299 304 248 211 172 157 152 155 156 157 163 169 169 170 169 168 166 166 169 173 172 170 172 173 175 178 179 179 180 182 181 179 179 181 182 182 185 186 183 183 188 192 197 200 202 206 207 206 208 212 216 220 222 227 233 230 205 182 173 176 181 185 187
302 149 172 244 167 156 177 197 181 183 169 144 159 184 164 141 161 161 163 159 138 149 177 184 244 265 248 178 158 159 162 163 168 173 174 171 169 170 170 166 165 168 172 173 171 171 171 173 175 177 178 179 180 179 178 179 180 182 185 187 187 186 189 195 198 202 205 207 208 209 210 213 215 217 220 221 224 222 207 189 177 175 181 187 189 185
256 172 164 195 171 163 175 162 161 168 162 150 160 190 173 164 138 121 215 258 117 137 166 159 207 266 263 185 166 163 165 172 176 174 171 171 170 171 172 169 167 171 173 172 171 170 171 172 170 171 175 176 176 177 177 179 181 184 187 188 189 193 197 200 203 206 210 211 211 212 212 211 209 208 209 207 203 196 188 181 177 180 186 189 187 176
189 139 136 165 183 182 175 140 153 164 150 130 152 185 155 141 126 125 191 243 131 135 160 123 183 262 273 200 175 170 172 174 175 173 168 170 172 170 170 171 171 173 172 170 170 171 172 172 168 168 173 175 176 178 177 180 185 187 189 191 193 197 201 204 208 210 211 212 210 208 205 200 196 193 192 189 184 180 178 176 178 183 187 187 181 167
177 141 117 119 5 297 326 6 44 149 137 121 171 180 134 142 153 143 170 188 137 201 154 99 203 258 292 240 171 169 174 170 171 172 165 165 169 169 169 170 170 171 170 167 168 169 171 171 167 168 172 175 177 179 179 183 187 188 190 193 196 200 204 206 206 205 205 204 201 198 195 191 189 186 183 179 175 172 171 174 178 182 186 186 175 164
201 185 110 103 78 29 4 340 316 234 158 143 184 227 163 146 139 146 151 95 53 239 159 128 208 254 296 308 126 115 119 126 135 151 157 162 164 165 166 166 167 168 167 166 165 165 168 169 167 168 172 175 178 181 181 183 187 190 192 196 199 203 204 202 199 196 195 194 191 189 187 187 186 183 177 172 170 168 170 175 180 181 184 184 174 166
189 180 112 125 155 172 180 214 219 204 180 145 64 296 192 147 139 167 152 86 58 249 150 141 201 257 324 100 127 128 117 97 84 96 116 145 159 163 164 163 166 168 167 167 167 166 167 167 168 171 174 176 179 183 183 184 189 194 196 198 201 201 198 194 192 188 187 187 185 184 184 184 184 181 175 170 169 170 173 178 180 180 179 178 175 169
91 88 108 132 157 176 187 213 190 138 137 166 176 290 239 160 132 122 114 133 182 193 106 218 191 138 118 132 132 139 140 132 127 122 128 149 167 170 169 167 168 170 169 167 167 167 167 167 169 173 176 177 180 184 185 186 192 198 199 198 197 194 191 189 188 185 185 186 185 184 183 182 180 176 171 169 169 172 177 179 180 179 174 171 172 169
100 53 102 135 149 170 185 199 143 110 125 166 178 256 265 145 115 100 131 187 164 125 273 260 192 147 165 170 148 149 153 147 143 147 156 169 177 176 172 169 168 168 167 166 165 167 167 167 168 171 174 177 179 181 183 188 197 203 201 196 191 188 188 187 187 187 187 188 187 186 183 177 172 169 167 167 169 172 176 178 179 177 171 168 169 166
107 82 294 146 137 108 126 168 132 119 131 149 160 200 208 135 130 129 178 191 140 147 216 220 186 171 177 182 168 160 162 165 167 170 171 173 174 173 170 168 166 165 165 165 166 168 168 168 168 170 174 178 179 181 185 193 202 203 197 192 189 187 188 187 188 191 193 193 191 187 181 174 170 168 168 169 170 172 176 180 180 174 168 167 167 162
104 13 313 113 87 15 1 348 131 132 140 140 162 187 165 149 156 144 161 176 131 141 190 154 143 192 183 181 175 152 145 154 160 163 165 166 169 171 169 167 166 165 165 166 167 168 169 170 171 172 175 177 180 185 190 197 201 199 191 188 186 187 189 190 193 196 196 195 190 184 178 174 172 171 172 173 174 176 179 181 179 172 166 165 164 158
84 324 294 69 58 346 348 353 358 145 156 171 205 210 134 121 139 134 127 136 103 75 73 115 120 99 343 136 135 121 118 124 138 152 161 167 170 169 168 168 166 165 165 166 167 168 170 172 175 178 179 180 184 189 192 195 197 193 187 185 184 186 189 192 195 194 192 190 186 181 177 174 173 174 174 174 175 177 179 180 177 171 165 163 160 155
65 46 323 56 61 319 342 349 296 175 131 151 256 284 127 117 128 170 151 160 144 119 97 94 125 162 192 147 135 139 138 140 154 164 166 171 173 171 170 169 166 166 167 166 168 170 173 176 178 182 185 188 191 191 192 195 195 190 187 186 184 186 189 192 193 190 188 188 184 180 178 175 175 174 173 174 175 177 179 181 177 169 164 162 159 153
70 85 31 66 89 306 325 316 236 98 88 203 259 255 207 153 140 124 110 169 157 137 132 153 184 182 164 152 150 157 158 162 170 172 172 175 175 174 173 170 168 168 168 169 173 176 178 179 180 184 189 193 194 192 193 197 198 194 190 187 186 187 188 191 192 191 191 189 184 180 178 177 176 175 174 176 178 180 182 182 178 169 165 162 157 152
37 92 89 79 106 297 310 332 92 100 124 238 243 218 203 181 145 129 143 213 177 139 132 150 155 141 150 163 164 167 176 179 177 176 176 175 172 172 172 170 169 169 170 173 177 178 179 180 182 186 190 191 190 190 193 197 199 197 192 189 188 188 189 190 191 192 191 187 184 181 179 179 179 178 178 179 182 184 186 185 180 170 165 162 157 154
36 68 74 38 96 131 325 31 91 141 215 249 274 274 251 164 131 129 130 284 196 135 117 120 143 161 170 180 178 175 178 177 173 173 175 176 174 171 169 171 171 172 174 177 179 181 183 185 186 186 187 187 188 191 192 194 195 195 193 190 189 188 187 187 186 188 188 185 183 183 182 182 182 182 182 182 184 187 189 188 181 170 165 162 158 154
91 77 76 59 84 98 24 58 128 200 254 296 324 310 291 38 90 118 106 2 336 159 142 146 165 174 166 157 161 167 164 161 162 169 174 177 178 175 173 176 179 181 184 186 186 187 187 187 186 186 186 188 191 192 192 192 193 191 188 188 189 187 185 185 185 187 188 185 183 184 184 184 184 183 183 183 184 187 188 188 181 171 168 164 158 153
108 84 48 48 53 119 100 79 174 327 338 335 339 309 253 57 105 141 130 24 324 308 185 161 162 163 150 140 141 143 141 139 141 169 178 179 181 183 184 186 187 190 191 191 190 189 188 187 187 187 189 192 193 193 193 192 191 188 185 186 188 187 185 185 186 187 187 186 185 186 186 186 185 184 184 184 185 186 186 185 180 173 170 166 159 152
88 90 111 96 33 79 96 55 30 49 340 259 258 268 256 191 161 140 99 34 309 323 299 164 161 158 148 136 138 138 135 134 142 188 187 185 185 187 188 190 191 192 191 189 188 188 188 190 190 188 190 192 193 193 193 192 189 187 185 185 187 186 185 185 187 190 190 188 187 188 188 188 188 187 186 186 185 185 184 183 179 172 168 164 158 152
46 60 95 91 39 58 91 80 94 140 233 239 251 271 260 187 150 108 56 331 290 322 324 168 164 159 154 150 150 147 140 146 199 200 190 188 189 190 190 190 191 191 190 190 190 191 190 190 189 189 190 191 190 189 190 190 188 187 186 186 187 188 188 189 192 193 190 187 188 189 188 189 191 190 189 187 185 184 183 181 176 167 161 160 160 154
18 23 48 57 41 73 87 82 164 208 246 259 275 267 217 148 109 82 57 252 277 320 315 174 169 167 164 158 155 157 163 174 200 203 192 188 190 192 193 194 193 191 190 190 192 194 193 191 190 189 190 190 189 188 190 191 190 189 187 187 188 191 193 194 195 191 185 183 187 189 189 190 192 191 190 188 185 183 181 178 173 165 159 160 162 156
14 17 40 76 81 71 84 86 295 267 261 273 284 247 162 108 77 85 195 230 278 327 334 176 175 172 167 164 164 179 190 192 202 195 186 185 189 191 193 196 195 192 192 191 191 193 193 193 193 193 192 192 192 191 193 194 192 190 189 189 191 194 197 197 193 187 182 182 186 190 192 193 193 192 191 188 184 180 178 177 173 167 164 164 163 158
50 18 13 100 134 67 103 105 1 272 275 311 332 23 76 82 95 211 212 227 282 341 21 164 178 175 171 174 179 188 199 211 212 185 179 183 188 189 190 193 192 191 192 192 193 194 193 192 192 192 192 193 194 194 194 195 193 191 190 192 194 196 198 194 188 185 184 183 185 191 194 194 194 193 190 186 184 181 176 174 172 169 168 166 162 159
152 101 336 223 188 105 81 62 68 199 288 334 349 17 38 89 182 203 181 105 65 31 40 122 173 178 181 186 191 200 214 216 189 176 176 181 186 188 190 193 193 192 192 192 193 195 194 192 190 190 191 192 192 193 194 193 192 191 192 196 197 197 196 192 186 185 184 184 187 192 195 195 195 195 190 186 184 182 176 173 171 170 169 166 163 161
158 144 180 217 190 111 114 72 194 207 279 337 3 132 121 114 130 132 123 90 65 60 51 73 164 183 190 194 198 204 202 185 174 172 174 178 184 188 190 192 194 193 192 192 193 193 194 193 190 189 190 191 192 194 194 193 193 192 194 197 197 195 193 191 187 185 185 187 191 193 195 195 195 193 190 186 184 182 178 175 173 171 170 168 165 164
258 217 171 156 117 131 164 198 221 230 342 26 57 88 90 88 89 86 88 72 49 52 64 68 119 188 199 202 201 199 193 186 178 175 176 179 185 189 190 190 193 193 193 192 192 193 193 193 191 189 188 189 191 193 194 195 195 195 196 197 196 195 193 190 187 186 188 191 193 194 195 195 193 191 189 186 185 184 182 178 175 173 172 171 169 168
324 338 80 115 105 76 86 202 217 129 45 52 62 66 68 75 71 59 66 68 46 33 37 51 54 200 206 205 202 198 197 192 182 179 179 181 184 188 189 190 192 193 192 191 190 191 191 191 191 190 188 188 190 191 193 195 198 198 197 196 195 195 193 189 187 188 191 193 194 195 195 193 190 189 188 186 185 187 186 182 177 174 174 173 172 171
340 5 37 80 84 77 42 281 262 72 52 53 64 70 73 71 53 43 59 60 37 26 20 17 17 355 209 204 202 201 199 193 183 179 180 181 184 187 189 190 191 193 193 193 191 191 190 190 190 190 188 187 188 190 192 195 198 200 199 196 195 194 192 190 190 192 194 194 194 195 195 194 190 187 186 185 185 187 188 183 177 175 176 175 173 173
329 357 28 62 55 97 219 255 268 71 58 62 76 77 71 67 43 28 37 18 5 18 17 6 13 20 200 201 201 200 195 190 186 182 181 183 186 188 189 191 192 193 193 193 192 191 191 191 190 189 188 187 188 190 193 195 198 201 201 199 196 193 192 192 194 195 195 195 195 196 196 194 190 186 185 186 187 188 186 180 176 177 178 177 175 176
312 341 23 80 45 37 245 270 302 72 47 60 94 89 72 65 32 352 350 340 348 13 19 0 356 5 208 200 200 197 191 188 188 186 184 184 186 188 189 191 191 191 191 192 192 192 191 190 190 189 189 189 190 192 194 197 200 202 202 200 196 193 193 194 195 196 197 197 197 197 195 192 189 187 186 187 187 185 180 175 175 178 179 177 178 182
3 348 78 88 75 214 226 218 154 125 263 265 143 123 109 84 329 295 297 313 327 343 344 295 225 192 183 202 203 198 191 188 187 186 186 186 187 188 189 190 189 189 190 189 189 190 190 190 190 190 191 193 193 193 196 200 202 202 200 198 196 194 194 195 195 197 198 199 198 196 192 189 188 188 188 186 183 179 175 175 177 181 183 184 183 186
42 184 133 130 168 225 232 213 163 124 234 228 158 136 167 202 247 269 292 340 317 323 331 288 226 190 176 188 200 200 197 193 189 186 185 185 186 187 188 189 189 188 187 187 186 187 189 190 192 193 194 195 194 196 199 201 201 199 198 197 196 196 197 197 197 198 199 199 198 194 190 189 188 188 187 185 182 180 178 178 180 183 188 192 189 189